LU1APW-13 Weather Reports


Display with metric or nautical units.
time (UTC)temp
F
wind
direction
speed
MPH
gust
MPH
rain 1hr
in
rain 24hr
in
rain mn
in
humidity
%
barometer
mb
20260507190106 61 0.0 0.0 0.00 0.00 0.00 65 1000.2
20260507185106 61 0.0 0.0 0.00 0.00 0.00 65 1000.4
20260507184106 61 0.0 0.0 0.00 0.00 0.00 65 1000.6
20260507183106 61 0.0 0.0 0.00 0.00 0.00 66 1000.7
20260507182106 61 0.0 0.0 0.00 0.00 0.00 66 1001.5
20260507181106 61 0.0 0.0 0.00 0.00 0.00 66 1002.0
20260507180106 61 0.0 0.0 0.00 0.00 0.00 67 1001.6
20260507175106 61 0.0 0.0 0.00 0.00 0.00 68 1001.4
20260507174106 61 0.0 0.0 0.00 0.00 0.00 68 1001.0
20260507173106 61 0.0 0.0 0.00 0.00 0.00 67 1000.2
20260507172106 61 0.0 0.0 0.00 0.00 0.00 67 999.8
20260507171106 61 0.0 0.0 0.00 0.00 0.00 68 1000.7
20260507170106 61 0.0 0.0 0.00 0.00 0.00 68 1001.0
20260507165106 61 0.0 0.0 0.00 0.00 0.00 68 1001.7
20260507164106 61 0.0 0.0 0.00 0.00 0.00 68 1002.0
20260507163106 62 0.0 0.0 0.00 0.00 0.00 69 1002.1
20260507162106 62 0.0 0.0 0.00 0.00 0.00 69 1001.4
20260507161106 63 0.0 0.0 0.00 0.00 0.00 73 1000.5
20260507064253 68 0.0 0.0 0.00 0.00 0.00 85 999.0
20260507063253 68 0.0 0.0 0.00 0.00 0.00 86 1001.6
20260507062253 69 0.0 0.0 0.00 0.00 0.00 85 1001.2
20260507061253 68 0.0 0.0 0.00 0.00 0.00 85 1001.7
20260507060253 68 0.0 0.0 0.00 0.00 0.00 86 1001.9
20260507055253 68 0.0 0.0 0.00 0.00 0.00 86 1002.4
20260507054253 69 0.0 0.0 0.00 0.00 0.00 85 1001.5
20260507053254 68 0.0 0.0 0.00 0.00 0.00 85 1000.9
20260507052253 69 0.0 0.0 0.00 0.00 0.00 84 1000.9
20260507051253 69 0.0 0.0 0.00 0.00 0.00 84 1000.0
20260507050257 69 0.0 0.0 0.00 0.00 0.00 84 999.5
20260507045253 69 0.0 0.0 0.00 0.00 0.00 85 999.8
20260507044253 69 0.0 0.0 0.00 0.00 0.00 84 1000.5
20260507043253 70 0.0 0.0 0.00 0.00 0.00 84 1000.8
20260507042254 70 0.0 0.0 0.00 0.00 0.00 84 1001.2
20260507041253 70 0.0 0.0 0.00 0.00 0.00 85 1000.1
20260507040253 69 0.0 0.0 0.00 0.00 0.00 85 999.2
20260507035253 72 0.0 0.0 0.00 0.00 0.00 82 999.3
20260507034253 73 0.0 0.0 0.00 0.00 0.00 79 998.5
20260507033253 76 0.0 0.0 0.00 0.00 0.00 81 998.8
20260507032253 77 0.0 0.0 0.00 0.00 0.00 78 998.0
20260507031253 77 0.0 0.0 0.00 0.00 0.00 79 998.4
20260507030253 76 0.0 0.0 0.00 0.00 0.00 80 998.5
20260507025253 77 0.0 0.0 0.00 0.00 0.00 76 998.6
20260507024300 77 0.0 0.0 0.00 0.00 0.00 76 998.8
20260507023253 77 0.0 0.0 0.00 0.00 0.00 76 998.8
20260507022253 77 0.0 0.0 0.00 0.00 0.00 76 998.8
20260507021253 77 0.0 0.0 0.00 0.00 0.00 77 998.8
20260507020253 77 0.0 0.0 0.00 0.00 0.00 77 999.2
20260507015253 77 0.0 0.0 0.00 0.00 0.00 77 999.5
20260507014253 77 0.0 0.0 0.00 0.00 0.00 77 999.9
20260507013253 77 0.0 0.0 0.00 0.00 0.00 77 999.5
20260507012253 77 0.0 0.0 0.00 0.00 0.00 78 999.7
20260507011253 77 0.0 0.0 0.00 0.00 0.00 78 999.8
20260507010253 76 0.0 0.0 0.00 0.00 0.00 79 999.5
20260507005253 77 0.0 0.0 0.00 0.00 0.00 79 999.7
20260507004253 76 0.0 0.0 0.00 0.00 0.00 79 999.9
20260507003253 76 0.0 0.0 0.00 0.00 0.00 79 999.8
20260507002253 76 0.0 0.0 0.00 0.00 0.00 79 999.8
20260507001252 76 0.0 0.0 0.00 0.00 0.00 79 999.4
20260507000253 76 0.0 0.0 0.00 0.00 0.00 79 999.3
20260506235253 76 0.0 0.0 0.00 0.00 0.00 79 999.8
20260506234252 76 0.0 0.0 0.00 0.00 0.00 79 999.9
20260506233253 76 0.0 0.0 0.00 0.00 0.00 78 999.2
20260506232252 76 0.0 0.0 0.00 0.00 0.00 78 998.7
20260506231253 76 0.0 0.0 0.00 0.00 0.00 78 999.2
20260506230253 75 0.0 0.0 0.00 0.00 0.00 78 999.4
20260506225253 75 0.0 0.0 0.00 0.00 0.00 77 999.7
20260506224253 74 0.0 0.0 0.00 0.00 0.00 76 1000.2
20260506223253 74 0.0 0.0 0.00 0.00 0.00 76 1000.3
20260506222253 74 0.0 0.0 0.00 0.00 0.00 75 1000.4
20260506221252 74 0.0 0.0 0.00 0.00 0.00 75 1000.6
20260506220252 74 0.0 0.0 0.00 0.00 0.00 75 1001.0
20260506215252 74 0.0 0.0 0.00 0.00 0.00 74 1001.3
20260506214257 74 0.0 0.0 0.00 0.00 0.00 75 1001.5
20260506213253 74 0.0 0.0 0.00 0.00 0.00 74 1001.8
20260506212252 74 0.0 0.0 0.00 0.00 0.00 74 1001.9
20260506211253 74 0.0 0.0 0.00 0.00 0.00 74 1002.1
20260506210252 74 0.0 0.0 0.00 0.00 0.00 75 1002.1
20260506205253 74 0.0 0.0 0.00 0.00 0.00 75 1002.0
20260506204252 74 0.0 0.0 0.00 0.00 0.00 74 1002.0
20260506203252 74 0.0 0.0 0.00 0.00 0.00 75 1001.9
20260506202253 75 0.0 0.0 0.00 0.00 0.00 74 1002.1
20260506201252 75 0.0 0.0 0.00 0.00 0.00 74 1002.3
20260506200252 75 0.0 0.0 0.00 0.00 0.00 74 1002.4
20260506195252 76 0.0 0.0 0.00 0.00 0.00 73 1002.6
20260506194252 76 0.0 0.0 0.00 0.00 0.00 73 1002.7
20260506193253 76 0.0 0.0 0.00 0.00 0.00 73 1002.7
20260506192253 76 0.0 0.0 0.00 0.00 0.00 73 1002.7
20260506191252 76 0.0 0.0 0.00 0.00 0.00 73 1003.0